Weather History for Mineral Point, WI

Change the Weather History Date:

Sunday, November 11, 2012

  Actual Average (KLNR) Record (KLNR)
Temperature  
Mean Temperature 47 °F -  
Max Temperature 62 °F 45 °F 64 °F (2012)
Min Temperature 32 °F 28 °F 18 °F (2004)
Degree Days  
Heating Degree Days 18    
Moisture  
Dew Point 44 °F    
Average Humidity 79    
Maximum Humidity 100    
Minimum Humidity 52    
Precipitation  
Precipitation 0.67 in - - ()
Sea Level Pressure  
Sea Level Pressure 29.77 in    
Wind  
Wind Speed 15 mph (SW)    
Max Wind Speed 20 mph    
Max Gust Speed 29 mph    
Visibility 9 miles    
Events Rain    
Averages and records for this station are not official NWS values.
T = Trace of Precipitation, MM = Missing Value Source: NWS Daily Summary

Daily Weather History Graph

Daily Weather History Graph

Search for Another Location

Airport:

Trip Planner

Search our weather history database for the weather conditions in past years. The results will help you decide how hot, cold, wet, or windy it might be!

Date:

Astronomy

Nov. 11, 2012 Rise Set
Actual Time 6:48 AM CST 4:40 PM CST
Civil Twilight 6:18 AM CST 5:11 PM CST
Nautical Twilight 5:44 AM CST 5:45 PM CST
Astronomical Twilight 5:10 AM CST 6:18 PM CST
Moon 3:59 AM CST (11/11) 3:06 PM CST (11/11)
Length of Visible Light 10h 52m
Length of Day
9h 52m
Waning Crescent, 7% of the Moon is Illuminated
Nov 11
Waning Crescent
Nov 13
New
Nov 20
First Quarter
Nov 28
Full
Dec 6
Last Quarter

Hourly Weather History & Observations

Time (CST) Temp. Windchill Dew Point Humidity Pressure Visibility Wind Dir Wind Speed Gust Speed Precip Events Conditions
12:15 AM 62.6 °F - 46.4 °F 55% 29.76 in 10.0 mi South 17.3 mph 25.3 mph N/A Rain Light Rain
12:35 AM 62.6 °F - 44.6 °F 52% 29.77 in 10.0 mi South 16.1 mph 24.2 mph N/A   Scattered Clouds
12:55 AM 62.6 °F - 44.6 °F 52% 29.77 in 10.0 mi South 13.8 mph 20.7 mph N/A Rain Light Rain
1:15 AM 62.6 °F - 46.4 °F 55% 29.79 in 10.0 mi South 18.4 mph 26.5 mph N/A Rain Light Rain
1:35 AM 60.8 °F - 46.4 °F 59% 29.79 in 10.0 mi South 18.4 mph 21.9 mph N/A Rain Light Rain
1:55 AM 60.8 °F - 48.2 °F 63% 29.80 in 10.0 mi South 16.1 mph 26.5 mph N/A Rain Light Rain
2:15 AM 59.0 °F - 50.0 °F 72% 29.80 in 10.0 mi South 16.1 mph 20.7 mph 0.02 in Rain Rain
2:35 AM 59.0 °F - 50.0 °F 72% 29.80 in 10.0 mi South 17.3 mph 23.0 mph 0.02 in Rain Light Rain
2:55 AM 60.8 °F - 50.0 °F 68% 29.79 in 10.0 mi South 11.5 mph - 0.02 in   Mostly Cloudy
3:15 AM 60.8 °F - 50.0 °F 68% 29.79 in 10.0 mi South 15.0 mph 20.7 mph N/A   Overcast
3:35 AM 60.8 °F - 50.0 °F 68% 29.79 in 10.0 mi South 13.8 mph 21.9 mph N/A   Overcast
3:55 AM 60.8 °F - 50.0 °F 68% 29.78 in 10.0 mi SSE 12.7 mph 19.6 mph N/A   Overcast
4:15 AM 60.8 °F - 50.0 °F 68% 29.77 in 10.0 mi SSE 15.0 mph 20.7 mph N/A   Scattered Clouds
4:35 AM 60.8 °F - 50.0 °F 68% 29.78 in 10.0 mi South 12.7 mph 19.6 mph N/A   Scattered Clouds
4:55 AM 60.8 °F - 50.0 °F 68% 29.78 in 10.0 mi South 16.1 mph - N/A   Clear
5:15 AM 60.8 °F - 50.0 °F 68% 29.77 in 10.0 mi South 13.8 mph - N/A   Scattered Clouds
5:35 AM 60.8 °F - 50.0 °F 68% 29.76 in 10.0 mi South 15.0 mph 23.0 mph N/A   Scattered Clouds
5:55 AM 60.8 °F - 50.0 °F 68% 29.76 in 10.0 mi South 12.7 mph - N/A   Scattered Clouds
6:15 AM 60.8 °F - 50.0 °F 68% 29.75 in 10.0 mi SSE 11.5 mph - N/A   Overcast
6:35 AM 60.8 °F - 50.0 °F 68% 29.75 in 10.0 mi SSE 11.5 mph 18.4 mph N/A   Overcast
6:55 AM 59.0 °F - 50.0 °F 72% 29.75 in 10.0 mi SSE 15.0 mph 19.6 mph N/A   Overcast
7:15 AM 59.0 °F - 50.0 °F 72% 29.75 in 10.0 mi SSE 16.1 mph 21.9 mph N/A   Overcast
7:35 AM 59.0 °F - 50.0 °F 72% 29.74 in 10.0 mi SSE 15.0 mph 20.7 mph N/A   Overcast
7:55 AM 59.0 °F - 50.0 °F 72% 29.75 in 10.0 mi SSE 16.1 mph 24.2 mph N/A   Overcast
8:15 AM 59.0 °F - 50.0 °F 72% 29.74 in 10.0 mi SSE 16.1 mph 24.2 mph N/A   Overcast
8:55 AM 59.0 °F - 50.0 °F 72% 29.71 in 10.0 mi SSE 18.4 mph 21.9 mph N/A   Overcast
9:35 AM 59.0 °F - 50.0 °F 72% 29.71 in 10.0 mi SSE 17.3 mph 26.5 mph N/A   Overcast
10:15 AM 59.0 °F - 51.8 °F 77% 29.69 in 10.0 mi SSE 17.3 mph 28.8 mph N/A Rain Light Rain
10:35 AM 59.0 °F - 51.8 °F 77% 29.69 in 10.0 mi South 15.0 mph 26.5 mph N/A Rain Light Rain
10:55 AM 59.0 °F - 53.6 °F 82% 29.69 in 10.0 mi South 15.0 mph 24.2 mph 0.04 in Rain Rain
11:15 AM 59.0 °F - 53.6 °F 82% 29.68 in 7.0 mi South 12.7 mph - 0.03 in Rain Rain
11:35 AM 59.0 °F - 53.6 °F 82% 29.67 in 5.0 mi South 11.5 mph - 0.08 in Rain Light Rain
11:55 AM 59.0 °F - 53.6 °F 82% 29.68 in 5.0 mi SSW 15.0 mph 19.6 mph 0.13 in Rain Rain
12:15 PM 59.0 °F - 53.6 °F 82% 29.65 in 5.0 mi SSW 13.8 mph 21.9 mph 0.03 in Rain Rain
12:35 PM 57.2 °F - 53.6 °F 88% 29.66 in 3.0 mi SSW 13.8 mph 19.6 mph 0.06 in Rain Rain
12:55 PM 57.2 °F - 53.6 °F 88% 29.66 in 5.0 mi SW 10.4 mph 16.1 mph 0.11 in Rain Rain
1:15 PM 55.4 °F - 51.8 °F 88% 29.67 in 5.0 mi West 17.3 mph 28.8 mph 0.04 in Rain Rain
1:35 PM 53.6 °F - 50.0 °F 88% 29.68 in 7.0 mi West 15.0 mph 23.0 mph 0.09 in Rain Rain
1:55 PM 51.8 °F - 50.0 °F 94% 29.66 in 7.0 mi WNW 13.8 mph 21.9 mph 0.14 in Rain Rain
2:15 PM 51.8 °F - 50.0 °F 94% 29.69 in 10.0 mi WNW 12.7 mph - 0.01 in Rain Light Rain
2:35 PM 51.8 °F - 48.2 °F 88% 29.69 in 5.0 mi West 9.2 mph - 0.01 in Rain Light Rain
2:55 PM 51.8 °F - 48.2 °F 88% 29.69 in 5.0 mi West 8.1 mph - 0.02 in Rain Light Rain
3:15 PM 50.0 °F - 46.4 °F 87% 29.69 in 7.0 mi West 5.8 mph - 0.02 in Rain Rain
3:35 PM 51.8 °F - 48.2 °F 88% 29.70 in 7.0 mi SSW 4.6 mph - 0.06 in Rain Rain
3:55 PM 50.0 °F - 46.4 °F 87% 29.70 in 7.0 mi SW 4.6 mph - 0.09 in Rain Light Rain
4:15 PM 50.0 °F - 46.4 °F 87% 29.72 in 7.0 mi West 13.8 mph 21.9 mph 0.02 in Rain Rain
4:35 PM 46.4 °F 40.1 °F 42.8 °F 87% 29.74 in 7.0 mi West 15.0 mph 21.9 mph 0.04 in Rain Light Rain
4:55 PM 42.8 °F 34.8 °F 41.0 °F 93% 29.75 in 10.0 mi West 17.3 mph - 0.06 in Rain Light Rain
5:15 PM 41.0 °F 33.1 °F 39.2 °F 93% 29.78 in 7.0 mi West 15.0 mph 18.4 mph 0.02 in Rain Rain
5:35 PM 41.0 °F 33.5 °F 37.4 °F 87% 29.76 in 5.0 mi West 13.8 mph - 0.06 in Rain Rain
5:55 PM 37.4 °F 27.2 °F 35.6 °F 93% 29.78 in 10.0 mi West 19.6 mph - 0.06 in Rain Light Rain
6:15 PM 37.4 °F 27.8 °F 35.6 °F 93% 29.80 in 7.0 mi West 17.3 mph 23.0 mph N/A Rain Light Rain
6:35 PM 35.6 °F 24.8 °F 33.8 °F 93% 29.82 in 10.0 mi West 19.6 mph 25.3 mph N/A   Overcast
6:55 PM 35.6 °F 24.8 °F 33.8 °F 93% 29.81 in 10.0 mi West 19.6 mph 25.3 mph N/A   Overcast
7:15 PM 33.8 °F 23.2 °F 32.0 °F 93% 29.82 in 10.0 mi West 17.3 mph - N/A   Overcast
7:35 PM 33.8 °F 23.5 °F 32.0 °F 93% 29.82 in 10.0 mi West 16.1 mph - N/A   Overcast
7:55 PM 33.8 °F 23.2 °F 32.0 °F 93% 29.87 in 10.0 mi West 17.3 mph 20.7 mph N/A   Overcast
8:15 PM 33.8 °F 23.5 °F 32.0 °F 93% 29.85 in 10.0 mi West 16.1 mph 21.9 mph N/A   Overcast
8:35 PM 33.8 °F 23.2 °F 32.0 °F 93% 29.88 in 10.0 mi West 17.3 mph - N/A   Overcast
8:55 PM 33.8 °F 22.8 °F 32.0 °F 93% 29.90 in 10.0 mi West 18.4 mph 24.2 mph N/A   Overcast
9:15 PM 32.0 °F 20.8 °F 32.0 °F 100% 29.91 in 10.0 mi West 17.3 mph 26.5 mph N/A   Overcast
9:35 PM 32.0 °F 20.8 °F 30.2 °F 93% 29.90 in 10.0 mi West 17.3 mph 24.2 mph N/A   Overcast
9:55 PM 32.0 °F 20.8 °F 28.4 °F 87% 29.90 in 10.0 mi West 17.3 mph 24.2 mph N/A   Overcast
10:15 PM 32.0 °F 20.1 °F 28.4 °F 87% 29.91 in 10.0 mi West 19.6 mph - N/A   Overcast
10:35 PM 32.0 °F 20.8 °F 28.4 °F 87% 29.92 in 10.0 mi West 17.3 mph - N/A   Overcast
10:55 PM 32.0 °F 23.0 °F 26.6 °F 80% 29.93 in 10.0 mi West 11.5 mph 18.4 mph N/A   Overcast
11:15 PM 32.0 °F 21.6 °F 26.6 °F 80% 29.95 in 10.0 mi West 15.0 mph - N/A   Overcast
11:35 PM 32.0 °F 22.1 °F 24.8 °F 75% 29.94 in 10.0 mi West 13.8 mph 21.9 mph N/A   Overcast
11:55 PM 32.0 °F 22.1 °F 24.8 °F 75% 29.94 in 10.0 mi West 13.8 mph 20.7 mph N/A   Overcast